User: anonymous   Login
Location: Chiroubles
(46.1812°N, 4.6660°E)
Time: 18:22:59
(UTC+00:00)
Language:

Cosmos 1850 Rocket - Orbit

View from above orbital plane
View from above orbital plane
View from above satellite
View from above satellite

Ground track
Ground track

The orbit data is extracted from the following two-line orbital elements,

1 18096U 87049B   20298.06173327 -.00000045  00000-0 -64766-5 0  9997
2 18096  74.0393 136.1903 0021705   4.0148 356.1175 14.36554305747874
Epoch (UTC): 24 October 2020 01:28:53
Eccentricity: 0.0021705
inclination: 74.0393°
perigee height: 754 km
apogee height: 785 km
right ascension of ascending node: 136.1903°
argument of perigee: 4.0148°
revolutions per day: 14.36554305
mean anomaly at epoch: 356.1175°
orbit number at epoch: 74787

The dashed part of the orbit path shows where the satellite is in the earth's shadow,  

DLR